Location: Shepherdstown, WV
(39.4326°N, 77.8042°W)
Time: 05:57:25
(UTC-04:00)

Vanguard 3 - Pass Details

Date: 04 August 2021
Orbit: 510 x 3260 km, 33.3° (Epoch: 21 September)

Event Time Altitude Azimuth Distance (km) Brightness Sun altitude
Rises 23:10:29 0° 281° (W) 6,611 12.4 -26.3°
Reaches altitude 10° 23:14:44 10° 276° (W) 5,831 11.9 -26.8°
Maximum altitude 23:32:33 49° 210° (SSW) 3,856 10.2 -28.6°
Enters shadow 23:39:08 39° 169° (S) 4,117 10.1 -29.2°
Drops below altitude 10° 23:49:26 10° 142° (SE) 5,527 - -30.0°
Sets 23:53:23 0° 137° (SE) 6,255 - -30.3°
